CZ-4C R/B, 43264

Orbit data source: Space-Track

CZ-4C R/B, 43264 is space debris in SSO originally from a launch on Sat, 31 Mar 2018 UTC launched from the Taiyaun Space Center, China (TSC). Debris objects in space refer to the collection of defunct objects orbiting the Earth. Examples of debris include non-operational satellites, rocket bodies, and fragments generated from explosions, collisions, or faulty payload assembly.

Loading next visibility...
Identifier
43264, 2018-031F
Orbit
SSO
Country
Flag of CNCN / PRC
Related business
Manufacturer
SAST
Mission
Spacecraft
Bus & Motor
CZ-4 STAGE 3, Unknown motor
Mass
~1,000 kg wet, ~1,000 kg dry
Launch date (UTC)
2018-03-31 (8 years ago)
Launch vehicle
Unknown
Launch site
Taiyaun Space Center, China (TSC)
Object type
Payload
Rocket body
Debris
Shape & HBR
Cyl, 2.5 m
Radar Cross Section
14.536 m², Large (>1 m²)

Expand to show TLE details & history
Last TLE update: 12 hours ago

TLE from 12 hours ago
0 CZ-4C R/B
1 43264U 18031F   26133.33943157  .00003705  00000-0  14552-3 0  9997
2 43264  98.1305  51.5771 0078770 156.7524 203.7306 15.23580212445959
Epoch: 2026-05-13T08:08Z
TLE epoch observation values (Epoch: 2026-05-13T08:08:46.887Z)
Latitude
-0.00002°
Longitude
58.28087°
Altitude
547.768 km
Speed
7.561 km/s
True Right ascension
03h 26m 18s
True Declination
0° 00' 00"
Sunlit
Object was in daylight at epoch
Visualization orbit readout
Latitude
Unknown
Longitude
Unknown
Altitude
Unknown
Speed
Unknown
Apparent Right ascension
Unknown
Apparent Declination
Unknown
Sunlit
N/A
Visualization observer readout
Local Sidereal Time
04:49:17
Azimuth
Unknown
Elevation
Unknown
Doppler factor
Unknown
Orbital elements
Apogee altitude
546.162 km
Perigee altitude
437.929 km
Semi-major axis
6,870.182 km
Eccentricity
0.00788
Inclination
98.1305°
RAAN
51.5771°
Arg. of periapsis
156.7524°
True anomaly
203.37059°
Mean anomaly
203.7306°
Eccentric anomaly
203.55027°
Mean motion
3.81145 °/min
Orbital period
94.45 mins
BSTAR
0.00014552
Loading maneuver chart data...
Computing Atmospheric mass density...
Loading historical data...
Loading historical data...
Loading historical data...
Loading historical data...
Loading historical data...
Loading historical data...
Loading historical data...

Documentation

Showing up to 5 results
|